Location: Ethel Rock
(53.4667°N, 4.5667°W)
Time: 05:36:40
(UTC+00:00)

FENGYUN 3A - Pass Details

Date: 24 October 2020
Orbit: 824 x 835 km, 98.4° (Epoch: 25 November)

Event Time Altitude Azimuth Distance (km) Brightness Sun altitude
Rises 05:32:15 0° 13° (NNE) 3,397 7.0 -14.0°
Reaches altitude 10° 05:34:38 10° 11° (NNE) 2,460 6.2 -13.7°
Maximum altitude 05:40:02 68° 291° (WNW) 902 3.6 -12.9°
Drops below altitude 10° 05:45:25 10° 209° (SSW) 2,445 5.9 -12.1°
Sets 05:47:47 0° 207° (SSW) 3,375 6.6 -11.7°
